Overview Statistics Trail Chart Weather Telemetry Raw packets
 

This is the latest recevied weather packets stored in our database for station/object N2ZVN. If no packets are shown the sender has not sent any weather packets the latest 10 day(s).

<< 94 95 96 97 98 99 100 >>
Time Temp. Humidity Pressure Rain* Wind** Luminosity Snow
1788006317 16.67° C 85% 1024.7 hPa 0 mm - 185 W/m² -
1788006015 16.11° C 87% 1024.6 hPa 0 mm - 134 W/m² -
1788005710 15.56° C 88% 1024.5 hPa 0 mm - 51 W/m² -
1788005418 15.56° C 88% 1024.5 hPa 0 mm - 44 W/m² -
1788005104 15° C 89% 1024.7 hPa 0 mm - 46 W/m² -
1788004803 15° C 90% 1024.7 hPa 0 mm - 70 W/m² -
1788004498 15° C 90% 1024.5 hPa 0 mm - 63 W/m² -
1788004197 14.44° C 91% 1024.6 hPa 0 mm - 58 W/m² -
1788003896 14.44° C 92% 1024.6 hPa 0 mm - 52 W/m² -
1788003591 13.89° C 93% 1024.4 hPa 0 mm - 46 W/m² -
1788003286 13.89° C 96% 1024.5 hPa 0 mm - 41 W/m² -
1788002985 13.33° C 98% 1024.5 hPa 0 mm - 36 W/m² -
1788002680 12.78° C 98% 1024.5 hPa 0 mm - 33 W/m² -
1788002376 12.78° C 98% 1024.2 hPa 0 mm - 18 W/m² -
1788002071 12.78° C 98% 1024.4 hPa 0 mm - 15 W/m² -
1788001770 12.78° C 98% 1024.3 hPa 0 mm - 12 W/m² -
1788001466 12.78° C 98% 1024.1 hPa 0 mm - 10 W/m² -
1788001166 12.22° C 98% 1024 hPa 0 mm - 8 W/m² -
1788000862 12.22° C 98% 1024.2 hPa 0 mm - 6 W/m² -
1788000557 12.22° C 98% 1024.2 hPa 0 mm - 5 W/m² -
1788000257 12.22° C 98% 1024.2 hPa 0 mm - 4 W/m² -
1787999952 12.22° C 98% 1024.1 hPa 0 mm - 3 W/m² -
1787999649 12.22° C 98% 1024.1 hPa 0 mm - 2 W/m² -
1787999346 12.22° C 98% 1024 hPa 0 mm - 1 W/m² -
1787999044 12.78° C 98% 1024.1 hPa 0 mm - 0 W/m² -

* Rain latest hour (hover to see other rain measurements)
** Current wind speed in m/s (hover to see current wind gust speed)